When you browse on this site, cookies collect data to enhance your experience and personalize the content and advertising you see.
Visit our Privacy Policy to learn more. By continuing to use the site, you agree to this use of cookies and data.
  • In Schweiz
  • Länderverzeichnis
  • Für 7 Tage
  • Wassertemperatur
  • Satellitenkarten
  • Wetterkarte
  • Widgets
  • user-avatar
    Anmelden

    Stündliche Wetter Melbourne

    Heute, 22 Mai, Mittwoch

    Zeit Temperatur Niederschläge Wind Luftdruck Luftfeuchtigkeit
    00:00 +13°C° 0 mm 3 m/S 768 mmHg 78%
    01:00 +13°C° 0 mm 3 m/S 768 mmHg 79%
    02:00 +13°C° 0 mm 3 m/S 768 mmHg 80%
    03:00 +12°C° 0 mm 3 m/S 768 mmHg 80%
    04:00 +12°C° 0 mm 3 m/S 768 mmHg 80%
    05:00 +12°C° 0 mm 3 m/S 768 mmHg 80%
    06:00 +12°C° 0 mm 3 m/S 769 mmHg 81%
    07:00 +12°C° 0 mm 3 m/S 769 mmHg 82%
    08:00 +14°C° 0 mm 2 m/S 769 mmHg 76%
    09:00 +16°C° 0 mm 2 m/S 769 mmHg 70%
    10:00 +17°C° 0 mm 2 m/S 769 mmHg 65%
    11:00 +18°C° 0 mm 2 m/S 769 mmHg 57%
    12:00 +21°C° 0 mm 1 m/S 769 mmHg 50%
    13:00 +22°C° 0 mm 1 m/S 769 mmHg 43%
    14:00 +22°C° 0 mm 1 m/S 769 mmHg 44%
    15:00 +22°C° 0 mm 1 m/S 768 mmHg 45%
    16:00 +22°C° 0 mm 1 m/S 768 mmHg 46%
    17:00 +20°C° 0 mm 1 m/S 768 mmHg 52%
    18:00 +19°C° 0 mm 1 m/S 769 mmHg 59%
    19:00 +16°C° 0 mm 1 m/S 769 mmHg 65%
    20:00 +16°C° 0 mm 2 m/S 769 mmHg 68%
    21:00 +15°C° 0 mm 2 m/S 769 mmHg 71%
    22:00 +15°C° 0 mm 2 m/S 769 mmHg 74%
    23:00 +14°C° 0 mm 2 m/S 769 mmHg 75%

    Morgen, 23 Mai, Donnerstag

    Zeit Temperatur Niederschläge Wind Luftdruck Luftfeuchtigkeit
    00:00 +14°C° 0 mm 2 m/S 769 mmHg 75%
    01:00 +14°C° 0 mm 2 m/S 769 mmHg 76%
    02:00 +14°C° 0 mm 2 m/S 769 mmHg 76%
    03:00 +13°C° 0 mm 2 m/S 769 mmHg 76%
    04:00 +12°C° 0 mm 3 m/S 768 mmHg 76%
    05:00 +12°C° 0 mm 3 m/S 768 mmHg 76%
    06:00 +12°C° 0 mm 3 m/S 768 mmHg 75%
    07:00 +12°C° 0 mm 3 m/S 768 mmHg 74%
    08:00 +13°C° 0 mm 3 m/S 768 mmHg 68%
    09:00 +15°C° 0 mm 4 m/S 768 mmHg 63%
    10:00 +17°C° 0 mm 4 m/S 768 mmHg 57%
    11:00 +17°C° 0 mm 5 m/S 768 mmHg 53%
    12:00 +20°C° 0 mm 5 m/S 767 mmHg 48%
    13:00 +21°C° 0 mm 5 m/S 766 mmHg 44%
    14:00 +21°C° 0 mm 5 m/S 766 mmHg 46%
    15:00 +21°C° 0 mm 5 m/S 765 mmHg 48%
    16:00 +20°C° 0 mm 5 m/S 765 mmHg 50%
    17:00 +20°C° 0 mm 5 m/S 765 mmHg 52%
    18:00 +19°C° 0 mm 5 m/S 765 mmHg 54%
    19:00 +17°C° 0 mm 5 m/S 765 mmHg 56%
    20:00 +17°C° 0 mm 5 m/S 765 mmHg 54%
    21:00 +16°C° 0 mm 5 m/S 765 mmHg 52%
    22:00 +16°C° 0 mm 5 m/S 765 mmHg 51%
    23:00 +16°C° 0 mm 5 m/S 764 mmHg 50%

    übermorgen, 24 Mai, Freitag

    Zeit Temperatur Niederschläge Wind Luftdruck Luftfeuchtigkeit
    00:00 +16°C° 0 mm 5 m/S 764 mmHg 50%
    01:00 +16°C° 0 mm 5 m/S 764 mmHg 50%
    02:00 +15°C° 0 mm 5 m/S 763 mmHg 51%
    03:00 +15°C° 0 mm 5 m/S 763 mmHg 52%
    04:00 +14°C° 0 mm 4 m/S 763 mmHg 53%
    05:00 +14°C° 0 mm 4 m/S 763 mmHg 54%
    06:00 +14°C° 0 mm 5 m/S 763 mmHg 55%
    07:00 +14°C° 0 mm 5 m/S 762 mmHg 56%
    08:00 +14°C° 0 mm 5 m/S 762 mmHg 55%
    09:00 +15°C° 0 mm 5 m/S 762 mmHg 55%
    10:00 +16°C° 0 mm 5 m/S 762 mmHg 54%
    11:00 +16°C° 0.1 mm 6 m/S 761 mmHg 56%
    12:00 +16°C° 0.1 mm 6 m/S 761 mmHg 58%
    13:00 +16°C° 0.1 mm 7 m/S 760 mmHg 60%
    14:00 +17°C° 0 mm 7 m/S 760 mmHg 60%
    15:00 +18°C° 0 mm 7 m/S 759 mmHg 60%
    16:00 +18°C° 0 mm 7 m/S 759 mmHg 60%
    17:00 +19°C° 0.2 mm 6 m/S 759 mmHg 63%
    18:00 +17°C° 0.2 mm 6 m/S 759 mmHg 66%
    19:00 +17°C° 0.2 mm 6 m/S 760 mmHg 70%
    20:00 +16°C° 0.2 mm 5 m/S 760 mmHg 73%
    21:00 +17°C° 0.2 mm 4 m/S 760 mmHg 75%
    22:00 +16°C° 0.2 mm 3 m/S 761 mmHg 78%
    23:00 +16°C° 0 mm 3 m/S 760 mmHg 81%

    25 Mai, Samstag

    Zeit Temperatur Niederschläge Wind Luftdruck Luftfeuchtigkeit
    00:00 +14°C° 0 mm 3 m/S 760 mmHg 83%
    01:00 +14°C° 0 mm 3 m/S 760 mmHg 86%
    02:00 +13°C° 0 mm 3 m/S 760 mmHg 86%
    03:00 +13°C° 0 mm 3 m/S 760 mmHg 86%
    04:00 +13°C° 0 mm 3 m/S 759 mmHg 86%
    05:00 +12°C° 0 mm 3 m/S 759 mmHg 87%
    06:00 +12°C° 0 mm 3 m/S 760 mmHg 87%
    07:00 +12°C° 0 mm 3 m/S 760 mmHg 87%
    08:00 +13°C° 0 mm 3 m/S 760 mmHg 82%
    09:00 +14°C° 0 mm 4 m/S 759 mmHg 77%
    10:00 +15°C° 0 mm 4 m/S 759 mmHg 72%
    11:00 +16°C° 0 mm 5 m/S 758 mmHg 66%
    12:00 +19°C° 0 mm 5 m/S 758 mmHg 59%
    13:00 +20°C° 0 mm 6 m/S 757 mmHg 53%
    14:00 +19°C° 0 mm 5 m/S 756 mmHg 54%
    15:00 +19°C° 0 mm 5 m/S 756 mmHg 55%
    16:00 +19°C° 0 mm 5 m/S 755 mmHg 56%
    17:00 +17°C° 0.4 mm 5 m/S 755 mmHg 61%
    18:00 +16°C° 0.4 mm 5 m/S 756 mmHg 66%
    19:00 +15°C° 0.4 mm 5 m/S 756 mmHg 71%
    20:00 +15°C° 0.3 mm 5 m/S 756 mmHg 72%
    21:00 +14°C° 0.3 mm 4 m/S 756 mmHg 74%
    22:00 +14°C° 0.3 mm 3 m/S 756 mmHg 76%
    23:00 +13°C° 0.5 mm 4 m/S 756 mmHg 77%

    26 Mai, Sonntag

    Zeit Temperatur Niederschläge Wind Luftdruck Luftfeuchtigkeit
    00:00 +13°C° 0.5 mm 4 m/S 755 mmHg 78%
    01:00 +13°C° 0.5 mm 4 m/S 755 mmHg 79%
    02:00 +13°C° 0.4 mm 4 m/S 755 mmHg 77%
    03:00 +12°C° 0.4 mm 5 m/S 754 mmHg 75%
    04:00 +11°C° 0.4 mm 6 m/S 754 mmHg 73%
    05:00 +11°C° 0 mm 6 m/S 754 mmHg 72%
    06:00 +10°C° 0 mm 6 m/S 755 mmHg 71%
    07:00 +10°C° 0 mm 6 m/S 755 mmHg 70%
    08:00 +10°C° 0.2 mm 7 m/S 755 mmHg 67%
    09:00 +11°C° 0.2 mm 7 m/S 755 mmHg 64%
    10:00 +11°C° 0.2 mm 8 m/S 755 mmHg 61%
    11:00 +11°C° 0.4 mm 8 m/S 755 mmHg 60%
    12:00 +11°C° 0.4 mm 8 m/S 755 mmHg 60%
    13:00 +11°C° 0.4 mm 8 m/S 754 mmHg 60%
    14:00 +10°C° 0.7 mm 8 m/S 754 mmHg 62%
    15:00 +10°C° 0.7 mm 8 m/S 755 mmHg 65%
    16:00 +8°C° 0.7 mm 9 m/S 755 mmHg 67%
    17:00 +8°C° 0.2 mm 9 m/S 755 mmHg 67%
    18:00 +7°C° 0.2 mm 9 m/S 756 mmHg 67%
    19:00 +7°C° 0.2 mm 9 m/S 757 mmHg 68%
    20:00 +7°C° 0.4 mm 8 m/S 757 mmHg 70%
    21:00 +7°C° 0.4 mm 8 m/S 758 mmHg 71%
    22:00 +7°C° 0.4 mm 8 m/S 758 mmHg 73%
    23:00 +8°C° 0.1 mm 7 m/S 758 mmHg 74%

    27 Mai, Montag

    Zeit Temperatur Niederschläge Wind Luftdruck Luftfeuchtigkeit
    00:00 +8°C° 0.1 mm 7 m/S 759 mmHg 74%
    01:00 +8°C° 0.1 mm 7 m/S 759 mmHg 75%
    02:00 +8°C° 0 mm 6 m/S 759 mmHg 76%
    03:00 +8°C° 0 mm 5 m/S 759 mmHg 77%
    04:00 +7°C° 0 mm 5 m/S 759 mmHg 77%
    05:00 +7°C° 0 mm 4 m/S 760 mmHg 78%
    06:00 +7°C° 0 mm 4 m/S 760 mmHg 78%
    07:00 +7°C° 0 mm 4 m/S 760 mmHg 78%
    08:00 +8°C° 0 mm 4 m/S 760 mmHg 72%
    09:00 +9°C° 0 mm 5 m/S 760 mmHg 67%
    10:00 +10°C° 0 mm 5 m/S 760 mmHg 61%
    11:00 +11°C° 0 mm 6 m/S 759 mmHg 59%
    12:00 +13°C° 0 mm 6 m/S 759 mmHg 57%
    13:00 +14°C° 0 mm 7 m/S 758 mmHg 55%
    14:00 +14°C° 0 mm 7 m/S 757 mmHg 57%
    15:00 +12°C° 0 mm 7 m/S 757 mmHg 60%
    16:00 +12°C° 0 mm 7 m/S 756 mmHg 63%
    17:00 +12°C° 0 mm 7 m/S 756 mmHg 65%
    18:00 +12°C° 0 mm 7 m/S 756 mmHg 68%
    19:00 +12°C° 0 mm 7 m/S 755 mmHg 70%
    20:00 +12°C° 0.2 mm 7 m/S 755 mmHg 71%
    21:00 +12°C° 0.2 mm 7 m/S 754 mmHg 72%
    22:00 +12°C° 0.2 mm 7 m/S 754 mmHg 73%
    23:00 +12°C° 0.3 mm 7 m/S 753 mmHg 74%
    Mehr zeigen